FW1782 Weather Reports


Display with metric or nautical units.
time (UTC)temp
F
wind
direction
speed
MPH
gust
MPH
rain 1hr
in
rain 24hr
in
rain mn
in
humidity
%
barometer
mb
20260502214528 61 359 7.0 19.0 0.00 0.00 0.00 30 1017.8
20260502213023 62 359 5.0 13.0 0.00 0.00 0.00 30 1017.9
20260502211518 61 359 8.0 20.0 0.00 0.00 0.00 30 1018.2
20260502210120 61 359 6.0 19.0 0.00 0.00 0.00 30 1018.3
20260502204559 61 359 10.0 22.0 0.00 0.00 0.00 31 1018.5
20260502203054 61 359 7.0 17.0 0.00 0.00 0.00 31 1018.8
20260502201550 62 359 5.0 14.0 0.00 0.00 0.00 30 1019.0
20260502200045 60 359 6.0 20.0 0.00 0.00 0.00 33 1019.2
20260502194524 61 359 12.0 20.0 0.00 0.00 0.00 33 1019.4
20260502193019 60 359 7.0 19.0 0.00 0.00 0.00 33 1019.5
20260502191513 59 359 10.0 16.0 0.00 0.00 0.00 34 1019.8
20260502190113 59 359 4.0 15.0 0.00 0.00 0.00 33 1020.0
20260502184602 59 359 3.0 11.0 0.00 0.00 0.00 31 1020.3
20260502183047 59 359 6.0 14.0 0.00 0.00 0.00 34 1020.5
20260502181548 58 359 7.0 16.0 0.00 0.00 0.00 33 1020.8
20260502170104 56 359 6.0 16.0 0.00 0.00 0.00 35 1021.5
20260502163043 55 359 6.0 12.0 0.00 0.00 0.00 37 1021.8
20260502161554 54 359 4.0 15.0 0.00 0.00 0.00 37 1021.9
20260502151501 53 359 4.0 12.0 0.00 0.00 0.00 46 1022.2
20260502130112 41 359 3.0 8.0 0.00 0.00 0.00 75 1022.6
20260502123042 36 359 3.0 5.0 0.00 0.00 0.00 84 1022.5
20260502121518 34 359 2.0 3.0 0.00 0.00 0.00 89 1022.5
20260502120138 32 359 0.0 3.0 0.00 0.00 0.00 91 1022.3
20260502114555 31 359 0.0 3.0 0.00 0.00 0.00 92 1022.1
20260502113047 31 359 1.0 2.0 0.00 0.00 0.00 91 1022.0
20260502111540 31 359 0.0 2.0 0.00 0.00 0.00 91 1022.0
20260502110018 31 359 0.0 2.0 0.00 0.00 0.00 91 1021.8
20260502104512 31 359 1.0 2.0 0.00 0.00 0.00 91 1021.8
20260502103011 31 359 0.0 0.0 0.00 0.00 0.00 91 1021.7
20260502101502 32 359 0.0 1.0 0.00 0.00 0.00 90 1021.7
20260502091530 33 359 0.0 0.0 0.00 0.00 0.00 88 1021.6
20260502071524 34 359 0.0 0.0 0.00 0.00 0.00 81 1021.6
20260502070120 35 359 0.0 1.0 0.00 0.00 0.00 80 1021.7
20260502064558 35 359 1.0 2.0 0.00 0.00 0.00 80 1021.8
20260502063059 35 359 0.0 0.0 0.00 0.00 0.00 80 1021.9
20260502061546 36 359 0.0 1.0 0.00 0.00 0.00 80 1021.8
20260502060025 37 359 0.0 0.0 0.00 0.00 0.00 80 1021.8
20260502054522 37 359 0.0 0.0 0.00 0.00 0.00 77 1021.7
20260502053014 38 359 0.0 0.0 0.00 0.00 0.00 72 1021.6
20260502051515 39 359 0.0 2.0 0.00 0.00 0.00 70 1021.5
20260502050109 39 359 1.0 2.0 0.00 0.00 0.00 68 1021.5
20260502044547 40 359 0.0 2.0 0.00 0.00 0.00 66 1021.4
20260502043046 40 359 1.0 2.0 0.00 0.00 0.00 64 1021.3
20260502041536 41 359 0.0 3.0 0.00 0.00 0.00 63 1021.3
20260502040014 42 359 1.0 2.0 0.00 0.00 0.00 61 1021.3
20260502034512 42 359 2.0 5.0 0.00 0.00 0.00 58 1021.2
20260502033006 43 359 2.0 4.0 0.00 0.00 0.00 56 1021.0
20260502031602 44 359 1.0 4.0 0.00 0.00 0.00 55 1020.9
20260502030058 44 359 2.0 4.0 0.00 0.00 0.00 54 1020.7
20260502024541 45 359 2.0 4.0 0.00 0.00 0.00 54 1020.5
20260502023030 45 359 2.0 5.0 0.00 0.00 0.00 53 1020.3
20260502021525 46 359 2.0 4.0 0.00 0.00 0.00 52 1020.1
20260502020003 47 359 2.0 4.0 0.00 0.00 0.00 50 1020.0
20260502014601 48 359 3.0 5.0 0.00 0.00 0.00 49 1019.8
20260502013058 48 359 2.0 5.0 0.00 0.00 0.00 48 1019.7
20260502011551 49 359 3.0 9.0 0.00 0.00 0.00 46 1019.4
20260502010053 50 359 4.0 8.0 0.00 0.00 0.00 45 1019.2
20260502004545 51 359 4.0 10.0 0.00 0.00 0.00 44 1019.0
20260502003020 51 359 9.0 15.0 0.00 0.00 0.00 42 1018.9
20260502001517 52 359 5.0 13.0 0.00 0.00 0.00 41 1018.7
20260502000120 52 359 5.0 16.0 0.00 0.00 0.00 42 1018.6
20260501234552 53 359 7.0 12.0 0.00 0.00 0.00 41 1018.6
20260501233050 53 359 5.0 12.0 0.00 0.00 0.00 41 1018.6
20260501231544 53 359 6.0 11.0 0.00 0.00 0.00 41 1018.5
20260501230017 53 359 8.0 11.0 0.00 0.00 0.00 42 1018.6
20260501224511 53 359 5.0 13.0 0.00 0.00 0.00 42 1018.5
20260501223009 53 359 7.0 11.0 0.00 0.00 0.00 41 1018.4
20260501221503 53 359 4.0 10.0 0.00 0.00 0.00 41 1018.5
20260501220105 54 359 6.0 19.0 0.00 0.00 0.00 42 1018.4